Theta_e
319 319 319 319 320 320 321 321 321 322 322 322 322 323 323 323 324 324 324 325 326 327 328 329 329 330 330 329 329 330 330 327 328 326 324 331 337 340 338 340 339 340 335 334 333 330 321 317 317 315 315 312 314 312 317 315 316 316 309 308 306 309 306 310 308 308 308 307 305 303 308 310 308 305 308 310 309 311 313 312 316 318 319 322 323 326 327 331
320 320 319 319 320 320 320 320 321 321 321 322 322 322 322 323 323 323 324 325 325 326 328 329 329 329 329 330 330 331 328 326 322 325 326 337 338 339 340 339 339 339 336 334 332 330 325 321 316 313 312 308 318 311 314 311 315 311 310 309 306 310 312 313 313 311 308 309 306 306 307 310 309 309 308 307 307 308 308 311 315 315 319 323 322 325 327 329
319 319 319 319 319 320 320 320 321 321 321 321 322 322 322 322 323 324 323 324 325 326 327 328 329 329 329 330 330 330 328 321 320 317 327 338 338 339 340 339 337 336 337 334 334 333 327 321 316 316 312 308 312 309 312 310 312 312 310 306 308 313 312 311 312 310 310 309 305 305 305 307 308 309 310 307 307 308 307 307 311 312 313 319 323 323 326 328
319 318 319 318 319 319 320 320 321 321 321 321 321 321 322 322 323 323 323 323 325 326 327 328 329 329 329 329 330 331 326 318 311 319 329 338 338 339 339 338 336 335 336 331 323 328 318 315 314 316 312 308 310 313 308 312 309 311 309 307 310 312 311 312 311 312 309 307 307 306 304 304 307 308 309 308 306 307 309 311 311 310 313 316 324 324 326 327
320 320 319 319 318 318 319 320 320 321 321 321 321 321 322 322 322 322 322 323 324 324 326 327 328 329 328 329 328 330 319 308 311 322 331 338 339 340 338 337 334 333 335 324 324 317 317 314 312 311 311 308 309 309 308 312 312 311 308 312 311 312 311 315 313 311 308 303 306 305 303 305 308 307 308 309 305 306 310 313 313 313 314 318 322 324 325 325
320 320 319 318 319 318 319 319 319 320 321 321 321 321 321 321 322 322 322 323 323 325 325 326 327 328 328 328 329 324 315 294 322 326 338 338 338 340 338 336 335 327 329 328 327 319 320 314 312 308 305 306 305 304 308 311 312 305 310 310 310 313 311 311 313 307 306 305 306 304 307 307 305 306 309 309 308 310 311 310 314 315 316 321 325 325 323 325
319 320 320 318 318 318 318 319 319 319 320 320 320 321 321 321 321 322 322 322 323 324 325 326 327 328 327 327 326 318 312 313 325 327 335 337 338 338 338 336 332 325 326 323 321 321 320 315 312 308 306 304 306 306 309 309 309 308 308 310 309 310 311 307 309 303 305 306 306 307 306 306 306 304 308 307 311 312 308 308 306 311 317 324 323 324 324 325
319 319 318 318 317 317 319 319 319 319 319 320 320 321 321 321 321 322 322 323 323 324 324 325 326 327 326 324 315 309 309 310 321 331 333 336 336 337 336 332 327 325 327 326 322 320 313 312 309 310 309 304 307 306 309 308 309 306 306 310 308 306 309 305 302 303 304 305 303 305 305 307 307 307 304 306 310 312 309 311 314 315 318 320 322 323 324 325
318 318 318 318 318 318 318 318 319 319 319 320 321 320 320 320 320 321 322 323 323 324 324 325 326 326 326 323 313 307 306 320 324 326 330 335 336 336 334 325 326 324 326 329 326 323 319 312 309 313 305 307 309 306 308 306 303 308 308 310 307 308 308 307 301 301 302 304 303 304 305 305 305 302 303 308 310 313 312 313 316 318 319 319 321 323 324 325
317 318 319 318 318 318 318 318 319 318 318 320 320 320 320 320 320 321 322 322 323 324 324 324 326 326 322 316 312 300 313 329 326 325 325 331 332 334 331 327 326 325 325 326 326 323 318 315 311 310 309 307 308 306 310 306 307 311 309 310 308 309 308 305 306 303 301 303 302 304 305 304 301 303 305 309 311 311 310 310 318 316 316 319 321 323 324 324
317 318 319 318 318 318 318 318 319 319 319 319 320 320 320 320 320 320 321 322 323 323 323 324 325 324 317 315 305 300 327 330 326 327 331 331 330 331 330 328 326 325 324 324 324 324 324 321 319 313 311 306 307 305 307 307 311 309 310 309 308 308 308 303 304 304 301 301 302 303 304 301 301 301 303 309 307 308 309 310 313 315 315 318 320 323 325 324
317 319 317 318 317 318 318 317 319 319 318 318 320 320 320 320 320 320 321 321 321 322 323 323 324 323 318 312 306 306 327 329 330 330 331 330 329 332 333 329 327 326 323 319 321 324 325 321 318 312 306 309 304 305 305 310 309 309 309 305 307 308 306 307 305 306 303 305 302 303 301 300 299 298 303 308 306 306 308 309 311 313 315 316 319 322 323 324
316 317 316 317 317 317 318 317 318 318 318 318 319 320 320 320 320 320 321 321 321 321 322 323 322 321 313 301 306 318 324 325 331 330 331 329 327 331 333 331 328 327 325 320 318 320 321 320 319 310 312 312 307 305 311 310 308 308 308 306 306 305 304 308 307 302 302 307 303 305 299 304 306 302 304 308 308 305 305 306 308 312 315 316 318 320 322 324
316 316 316 315 316 317 316 317 317 317 317 318 319 320 320 320 320 320 320 320 321 321 322 322 323 316 309 302 314 325 324 322 326 324 327 328 325 326 329 331 331 331 329 321 319 319 319 319 317 315 314 310 307 317 310 306 306 302 305 306 302 302 302 309 307 302 304 303 301 307 300 305 310 311 306 308 307 306 305 306 307 309 312 316 317 318 320 323
315 316 316 315 317 316 317 317 317 317 317 318 318 319 319 319 320 319 320 319 320 322 321 321 320 311 301 304 317 321 325 327 320 319 330 326 324 322 323 327 326 327 325 320 318 319 320 319 313 308 305 312 310 307 304 305 306 304 300 297 302 300 304 305 307 305 305 301 301 305 301 304 310 313 307 308 307 306 306 307 308 308 310 312 316 317 318 320
316 315 316 317 316 316 315 317 316 316 316 318 318 319 319 319 319 319 319 319 319 321 322 315 312 310 304 298 308 320 321 312 312 323 328 328 325 321 324 323 322 323 321 319 320 320 319 317 310 308 306 308 305 304 302 302 303 303 300 299 299 301 302 304 305 306 310 303 299 304 302 305 307 313 313 310 307 305 306 307 308 308 308 310 312 316 317 319
316 315 316 315 316 316 316 317 317 317 317 317 318 319 318 319 319 318 317 317 317 320 318 308 312 310 294 309 317 309 312 317 321 321 324 325 324 322 321 318 318 317 319 318 319 317 317 313 310 309 309 303 303 304 297 294 294 299 301 298 302 300 302 301 304 303 305 305 301 302 302 306 309 307 307 307 307 306 305 307 309 309 310 309 311 313 315 317
315 315 315 316 316 315 316 317 317 317 317 317 317 316 317 319 319 316 314 313 313 313 314 315 312 303 299 308 300 304 315 318 318 320 324 324 324 323 320 317 317 316 315 312 315 310 311 305 308 301 302 302 300 300 294 289 293 296 299 298 299 302 303 302 302 305 302 302 303 302 301 304 308 311 308 306 306 305 305 307 309 310 310 310 310 310 311 313
315 315 315 314 315 314 315 317 317 317 317 316 317 317 315 314 314 314 310 307 304 299 295 297 300 288 287 298 305 310 315 321 323 321 319 320 321 322 322 320 317 313 309 308 305 307 307 304 304 299 295 297 297 298 297 299 301 300 301 301 301 299 300 301 306 304 305 302 301 303 301 302 305 308 311 309 305 305 307 308 308 308 309 309 308 308 308 310
313 315 315 315 315 315 316 317 317 317 315 312 311 309 308 303 302 300 306 304 301 300 301 303 305 302 301 304 304 312 319 325 315 318 321 323 319 316 314 314 312 314 307 302 304 304 306 297 293 293 296 298 301 301 301 303 304 304 303 303 301 301 303 304 306 305 305 304 303 304 305 304 305 307 309 309 308 305 305 306 307 308 308 308 308 308 308 308
313 314 315 315 315 314 314 315 317 316 314 313 309 303 294 294 290 288 297 300 304 305 302 305 305 303 301 309 313 310 306 309 318 317 319 324 321 314 308 310 305 302 304 306 303 308 305 295 295 298 300 301 302 304 303 302 303 303 302 302 301 302 301 305 305 305 304 303 304 305 303 304 306 308 309 309 308 306 306 306 307 308 309 309 310 310 310 310
313 314 314 314 314 314 315 316 316 314 314 311 307 301 301 300 305 307 302 292 300 304 305 304 307 304 309 308 313 314 310 305 307 314 321 320 312 307 307 307 303 299 305 305 302 299 296 293 297 301 303 303 303 302 303 302 301 302 300 301 300 301 304 305 305 303 302 301 302 301 301 303 305 307 309 308 308 308 309 309 309 309 310 310 310 310 311 312
312 313 314 314 314 315 314 315 314 313 311 307 304 302 300 307 310 311 306 299 295 302 302 302 300 302 303 309 311 312 305 301 301 309 313 318 308 307 308 303 302 302 303 302 296 295 291 294 299 304 304 301 300 301 301 301 301 300 300 299 298 303 300 298 303 302 300 303 300 301 300 303 306 307 308 309 308 308 309 309 310 310 310 311 312 312 312 312
312 314 315 315 314 314 314 314 314 311 308 307 305 303 308 312 311 308 301 292 291 298 300 302 302 302 302 301 311 307 302 304 305 305 317 315 307 310 307 304 301 301 298 300 299 296 293 298 303 304 303 301 298 299 298 297 295 299 299 300 300 302 302 302 302 302 299 299 299 300 301 302 304 303 305 308 309 308 308 308 308 310 311 312 313 314 315 314
312 312 314 314 314 314 314 314 308 305 309 308 305 308 310 312 311 311 299 295 293 293 305 303 305 303 304 315 311 303 304 305 307 313 315 314 309 306 303 309 305 297 300 301 300 298 297 302 306 302 302 301 300 298 298 297 293 296 299 300 302 304 303 303 301 301 300 300 300 301 295 296 304 305 306 309 310 307 309 308 308 309 309 310 309 310 312 314
312 313 314 314 314 314 315 306 304 307 305 303 305 309 311 312 313 314 299 286 280 290 299 290 304 295 312 304 308 305 305 297 307 310 315 315 317 309 306 303 304 296 299 299 297 298 298 302 303 300 300 300 299 298 300 299 295 294 296 302 302 304 303 303 301 302 296 294 301 304 294 291 303 303 306 308 308 308 310 308 309 310 311 310 310 310 311 311
312 313 313 314 313 314 305 298 308 307 300 301 308 309 311 311 314 307 288 280 276 291 288 298 296 297 305 304 305 303 287 291 309 313 309 312 309 314 303 300 302 302 303 303 297 292 299 298 299 299 299 298 297 295 299 300 296 293 303 304 303 303 303 303 302 302 300 302 300 298 301 294 294 301 306 308 306 307 308 309 310 310 311 312 313 313 313 313
312 312 313 313 313 313 306 307 305 302 303 306 309 310 311 311 310 302 286 271 269 296 288 293 296 309 302 306 306 297 296 307 296 304 312 314 312 308 304 299 298 299 301 299 286 299 299 297 297 296 297 296 295 298 301 301 297 298 303 305 303 303 304 304 303 301 302 300 296 297 299 294 293 300 306 306 303 304 305 308 310 311 312 312 313 314 315 315
312 311 312 312 313 313 312 307 305 302 307 308 308 308 307 307 302 289 280 269 289 287 310 293 310 301 301 305 300 300 298 303 293 305 311 314 313 308 297 301 303 301 302 300 293 298 300 300 299 299 298 294 299 302 302 302 297 301 305 307 306 306 305 304 302 301 299 296 290 297 298 291 292 300 301 304 302 302 304 307 309 311 312 313 314 314 314 314
312 311 312 312 312 309 307 309 305 308 309 308 307 307 307 302 292 280 273 266 290 280 294 296 294 292 300 294 295 298 295 299 302 305 308 305 306 308 305 311 303 301 298 301 299 299 304 305 305 301 298 300 302 303 304 302 303 307 306 303 300 297 297 298 301 300 296 288 292 298 298 296 289 297 300 300 301 304 306 307 309 311 312 314 315 316 316 314
312 312 311 312 306 306 306 301 305 309 309 307 307 305 301 295 282 275 268 277 289 288 295 294 290 299 294 291 288 296 295 297 297 303 299 305 303 305 303 300 305 298 297 297 296 299 301 302 301 302 305 304 305 300 303 304 304 303 300 298 298 295 297 293 291 296 288 286 293 299 298 298 288 294 302 305 307 307 306 306 307 309 311 312 314 315 315 315
311 312 312 310 309 309 301 299 307 310 308 308 305 299 293 278 283 272 271 291 277 285 287 288 294 293 292 294 292 293 291 294 297 297 295 297 296 296 295 289 295 285 285 289 289 298 295 297 301 303 305 304 301 298 298 301 301 301 298 298 291 287 288 284 287 283 285 287 294 299 299 294 293 298 303 304 306 307 308 308 308 309 311 313 314 315 316 316
311 311 311 311 309 305 306 308 309 308 308 305 300 296 284 277 269 277 278 280 276 291 287 295 291 292 292 292 289 294 295 288 296 297 297 299 296 296 299 296 298 294 285 291 290 290 291 298 300 300 302 304 303 294 292 292 298 298 295 293 289 285 283 283 285 287 287 291 297 296 300 293 298 300 305 304 307 309 310 310 312 312 312 313 315 316 315 316
312 311 308 309 307 307 308 308 308 308 305 302 296 289 283 274 272 284 280 282 281 290 294 291 293 293 292 287 289 294 288 294 293 293 296 293 295 291 295 298 298 295 295 292 288 288 284 284 292 297 293 304 302 300 298 296 298 297 300 298 292 290 286 283 286 283 285 289 292 298 293 289 292 297 302 304 308 310 311 312 313 314 314 314 312 309 309 311
311 310 308 307 306 307 307 308 308 307 303 298 289 283 274 273 279 277 279 282 285 289 290 295 290 289 287 289 292 294 293 288 294 293 293 292 289 292 292 294 298 298 295 287 290 290 288 289 298 302 302 304 300 304 304 301 298 299 300 302 295 291 298 290 291 291 290 290 287 290 291 297 297 305 305 306 305 304 304 305 304 305 306 308 309 309 310 310
308 306 307 303 303 305 307 307 307 306 300 293 284 279 275 279 277 283 281 289 291 287 289 291 291 286 286 286 291 291 296 291 292 292 291 292 293 292 296 297 295 298 294 288 292 285 289 287 299 301 306 303 302 304 302 304 288 296 298 292 295 302 300 291 288 287 290 290 288 293 293 297 303 304 306 307 305 305 306 305 305 305 307 308 308 310 311 311
303 304 299 302 303 306 307 307 306 302 298 290 282 276 282 282 288 286 289 286 289 292 289 282 283 284 283 283 286 289 291 293 292 290 286 293 289 294 295 297 300 298 299 297 292 297 289 289 299 298 296 304 306 306 304 304 305 299 291 296 300 300 303 293 287 288 288 286 288 292 289 293 294 291 305 304 304 306 306 306 306 306 307 305 307 308 310 311
301 301 301 300 304 307 308 307 305 300 295 287 280 282 285 281 290 288 294 290 290 292 288 285 285 288 283 284 284 288 291 287 288 290 285 291 285 298 294 295 300 298 299 301 294 295 298 288 293 299 299 303 306 305 300 304 301 299 296 305 296 289 288 290 290 283 282 283 286 289 292 293 296 295 298 301 303 304 306 308 308 307 307 305 306 307 307 309
302 299 293 300 306 307 306 306 302 296 290 283 281 281 282 284 291 290 294 293 291 289 287 288 285 286 287 284 287 289 290 284 290 288 285 289 284 296 295 297 296 300 300 300 295 296 298 288 290 299 299 301 302 300 289 295 299 298 301 299 300 296 291 289 289 290 290 284 285 285 290 288 298 298 302 302 304 306 307 307 308 309 310 309 310 312 311 308
298 292 288 302 305 306 306 303 296 292 286 280 282 282 287 283 284 293 289 294 289 287 286 288 289 286 286 286 290 286 290 288 289 288 288 292 288 300 295 299 296 300 301 300 296 300 292 295 285 293 300 299 291 296 293 296 292 292 295 293 292 292 295 295 294 291 288 286 286 286 285 290 297 303 302 303 305 306 307 307 308 309 310 311 312 313 314 310
298 290 289 303 304 305 304 298 289 285 283 286 285 283 283 283 286 289 293 292 294 292 292 288 289 286 287 285 286 291 289 289 290 288 289 291 290 286 299 299 300 298 302 299 296 297 291 290 286 290 291 291 294 301 300 300 299 296 295 293 294 292 289 287 285 294 292 290 286 287 284 292 301 303 305 305 306 307 309 309 310 311 311 312 313 312 309 309
291 285 288 302 304 304 296 286 286 289 286 283 282 285 283 293 284 288 288 292 291 293 286 291 290 290 287 286 288 288 289 288 289 289 290 288 294 293 299 304 301 303 298 293 293 299 297 292 291 287 289 293 298 302 304 304 303 301 299 296 299 298 296 290 285 288 292 292 292 290 288 291 303 303 305 306 307 307 309 309 308 310 311 311 311 309 309 309
288 286 298 302 304 300 292 285 287 286 284 286 291 289 291 288 286 287 288 288 289 290 290 288 289 287 288 289 286 286 289 288 290 288 291 292 293 296 301 303 304 302 301 297 298 298 296 290 286 287 292 295 297 298 300 302 302 298 298 295 298 294 295 293 292 294 290 291 290 290 287 292 299 302 304 304 306 307 307 307 308 308 309 309 308 306 305 304
289 291 293 301 304 299 289 280 280 283 285 286 287 286 291 288 287 284 286 289 287 285 289 289 289 290 287 289 288 285 289 284 291 291 289 294 291 300 300 303 304 300 299 297 294 299 289 288 290 285 285 286 289 294 293 296 299 295 295 297 298 299 298 293 290 288 289 290 291 289 284 291 301 300 299 298 300 301 303 303 304 307 308 308 307 306 305 305
290 291 289 290 300 296 285 287 285 284 284 283 283 284 286 286 290 288 290 286 291 288 289 289 291 292 287 286 285 287 289 288 286 293 293 293 292 300 299 301 304 301 302 304 299 303 293 290 288 284 281 279 279 280 283 286 290 295 297 298 298 298 297 292 288 287 285 289 291 289 289 297 297 296 298 298 297 299 302 302 299 301 305 306 307 307 304 302
287 281 285 285 289 291 289 292 291 287 284 283 282 284 287 284 287 290 288 289 292 290 291 293 291 291 289 286 283 282 285 289 287 287 291 291 294 296 300 302 302 302 301 299 301 300 291 292 291 289 288 286 289 292 297 297 294 290 294 296 296 298 299 297 294 289 286 289 289 292 294 295 295 296 296 297 297 299 302 301 300 301 300 300 301 301 301 302
289 284 284 280 286 287 286 290 287 288 284 287 281 284 282 284 286 286 291 285 289 288 285 289 290 288 286 286 284 284 285 285 286 284 289 291 294 297 300 302 303 302 299 298 299 296 288 289 292 292 292 293 295 293 298 297 293 294 294 294 297 297 298 295 291 288 295 291 286 294 296 293 295 298 298 298 298 299 302 303 302 301 301 303 303 301 296 298
283 286 289 290 284 280 282 284 288 287 288 287 284 286 283 283 284 282 286 290 289 291 286 285 287 291 290 288 288 283 284 283 284 284 287 293 294 295 295 300 300 300 298 300 301 296 288 286 292 293 291 294 294 293 295 296 296 295 295 296 294 296 296 292 293 296 296 290 288 295 296 294 296 299 300 300 301 300 300 301 302 302 300 300 299 300 302 302
288 289 289 292 285 286 286 287 288 287 286 286 285 285 283 283 282 286 285 285 286 286 289 284 286 289 290 291 289 285 285 282 282 285 284 287 290 293 291 294 298 301 299 299 298 296 292 286 288 291 291 293 292 292 293 293 294 294 295 296 296 295 295 296 295 297 297 294 295 296 297 297 299 300 302 302 302 302 301 301 299 298 299 301 301 300 302 305
285 285 285 289 289 287 288 288 287 286 284 287 282 284 285 284 283 286 288 286 282 285 288 285 287 290 291 291 291 286 288 289 288 285 288 290 288 293 293 293 293 296 298 292 294 296 293 287 289 287 285 286 289 292 293 293 293 292 295 296 296 296 295 296 295 297 297 295 296 296 296 296 301 304 304 305 304 303 302 299 299 301 301 299 299 301 303 304
292 292 293 287 284 286 288 288 286 285 283 285 283 285 286 286 285 287 287 291 287 286 287 286 289 289 291 291 291 290 293 292 293 292 293 293 288 294 292 293 298 292 295 293 294 293 293 289 290 286 283 284 287 288 289 290 290 289 291 294 294 294 292 294 293 297 295 293 296 296 294 295 301 305 304 302 302 301 300 301 301 301 300 298 299 300 302 303
293 292 294 291 283 287 285 288 288 285 281 285 285 286 286 286 289 289 285 291 292 292 291 290 291 289 289 289 289 292 295 296 296 297 297 297 298 294 297 298 299 296 293 293 296 292 291 290 286 285 283 282 286 288 287 287 285 284 286 291 294 296 296 297 298 299 299 299 295 291 293 300 303 303 302 301 300 300 300 301 302 303 304 302 301 300 302 302
Wind_Speed
28 27 26 25 24 23 23 22 22 20 19 19 19 18 17 16 15 15 14 13 12 10 9 9 7 7 8 8 8 7 4 6 7 13 14 10 8 4 9 9 13 10 6 2 1 1 1 3 4 1 2 3 1 5 2 2 0 4 7 8 10 8 9 7 8 8 4 2 7 9 11 10 8 5 4 3 4 4 3 6 3 3 6 2 3 3 3 11
27 27 27 26 25 24 23 22 21 21 20 19 19 18 18 17 16 15 15 13 12 11 9 8 9 8 7 7 6 6 6 7 12 15 21 6 12 12 10 12 11 9 4 8 9 4 5 4 3 3 3 5 3 3 1 3 2 8 5 7 11 8 6 4 7 6 3 4 6 9 9 10 5 11 6 7 7 8 7 7 7 8 8 6 2 3 7 13
28 29 27 27 26 24 24 23 22 21 20 19 18 18 17 17 15 14 14 13 11 10 8 8 8 8 8 5 5 5 4 8 12 19 19 12 11 13 11 11 10 11 12 9 9 9 7 4 0 5 3 6 3 5 4 3 4 5 5 10 12 4 4 5 6 8 8 2 6 8 8 8 4 6 7 7 5 6 11 9 8 10 12 13 8 6 8 12
28 28 27 28 26 25 24 24 22 22 20 19 18 17 17 15 15 15 14 13 11 10 9 8 7 7 7 6 2 5 4 5 14 8 13 17 15 14 13 13 12 11 8 4 3 4 2 1 3 6 3 7 3 3 5 4 6 4 8 10 7 6 5 8 8 8 5 1 2 5 4 7 6 5 8 6 6 10 11 13 11 14 15 13 11 10 10 12
28 28 27 26 27 26 25 24 23 22 21 20 18 18 16 15 15 15 14 13 12 11 9 8 7 7 6 5 5 4 4 3 6 11 11 21 18 18 15 14 13 9 7 7 5 3 2 3 4 4 4 5 5 4 9 5 4 1 11 13 1 2 8 4 7 4 4 2 3 5 8 7 6 3 10 9 11 9 10 12 14 13 12 11 12 13 11 12
28 27 27 28 26 27 26 25 24 22 21 20 19 18 17 15 14 14 15 13 12 10 10 8 7 7 7 7 5 7 9 14 3 0 23 22 21 19 17 15 12 10 9 7 5 4 5 3 6 6 4 7 10 10 7 9 6 10 11 11 3 3 7 3 2 4 6 5 7 7 4 5 9 7 12 13 15 4 5 4 4 12 3 7 10 12 12 13
26 24 22 23 24 26 25 24 24 23 21 21 19 18 17 16 15 14 14 14 12 11 10 9 7 6 7 6 4 7 13 9 3 11 6 25 25 19 17 15 14 11 10 10 6 6 6 6 9 7 6 6 11 12 9 6 4 10 12 5 8 5 8 2 2 3 5 7 8 2 4 7 6 10 4 12 16 6 4 4 1 1 5 9 12 13 15 16
27 29 23 22 25 26 24 24 23 22 22 21 20 18 17 16 15 14 13 13 12 12 10 9 7 7 9 6 5 7 12 16 13 10 4 19 23 20 17 12 14 12 13 14 11 9 3 8 10 8 9 10 6 11 8 9 8 12 14 9 1 2 5 1 0 4 5 3 3 3 6 8 9 3 3 10 16 11 5 3 3 4 7 8 10 13 12 13
29 27 25 26 26 26 24 24 23 22 22 21 20 19 18 17 15 14 13 12 12 11 11 9 9 8 8 4 6 8 15 12 2 6 5 5 16 18 18 11 13 14 14 13 14 11 9 5 2 1 6 12 6 14 9 11 10 12 15 7 3 4 4 3 1 3 6 2 3 6 10 2 1 4 9 11 12 11 7 3 4 5 7 9 11 12 13 13
30 27 24 26 26 25 25 24 23 23 23 21 20 19 18 17 15 14 13 13 12 12 10 10 9 10 10 7 5 14 6 2 8 12 9 4 7 13 15 15 17 14 12 12 12 12 12 7 11 5 4 4 4 9 7 14 6 9 15 11 6 3 4 3 8 5 4 4 6 9 9 5 2 4 9 10 12 6 8 10 5 6 7 9 9 10 11 12
32 29 27 27 29 24 26 25 24 23 23 22 20 19 18 16 15 14 13 13 12 11 11 10 10 10 9 8 10 16 2 1 2 5 3 1 8 18 18 14 18 15 13 12 14 18 13 11 11 8 3 4 5 8 6 6 3 2 8 5 8 3 4 2 5 4 4 5 9 8 7 2 3 4 12 1 4 6 9 11 9 9 9 9 10 10 10 11
30 26 31 26 22 26 22 25 24 24 24 22 20 19 17 15 14 13 13 12 13 12 11 10 11 7 7 8 12 11 3 5 5 1 4 3 6 17 15 15 15 14 14 12 11 10 10 11 12 7 5 5 4 8 8 6 7 6 4 8 10 9 10 9 9 8 7 6 7 5 6 10 8 12 8 8 4 4 8 9 9 10 11 10 9 9 9 11
31 28 28 23 27 24 24 25 23 23 23 21 20 18 16 15 13 13 12 12 13 12 11 10 8 5 6 11 15 12 6 4 6 2 4 3 4 6 6 13 14 13 13 12 12 11 12 12 12 13 3 2 1 4 7 10 5 1 8 10 8 9 12 14 5 4 8 4 7 7 11 12 17 15 7 10 7 4 5 8 8 8 9 8 9 8 9 9
29 29 28 26 27 26 23 25 26 25 24 22 20 17 16 15 13 13 13 11 10 12 10 11 6 6 7 10 3 4 5 10 1 5 4 6 6 4 2 6 3 9 9 10 12 12 15 11 9 6 3 2 1 6 7 4 1 11 6 2 11 11 14 12 12 9 10 4 8 8 14 13 13 12 14 11 8 10 10 10 9 9 9 8 8 9 9 11
28 25 28 29 25 24 22 25 26 24 23 22 19 17 15 15 13 13 11 11 11 11 11 6 6 6 6 9 6 10 7 1 6 10 7 10 7 5 3 5 5 7 7 14 11 12 13 15 12 6 3 2 2 4 3 3 5 6 7 13 12 15 7 8 7 15 15 4 6 10 13 15 16 7 13 12 10 10 13 12 11 9 9 9 8 10 10 10
28 29 32 27 29 29 29 27 25 23 23 21 18 16 15 14 13 12 13 10 12 11 7 6 7 8 2 10 4 7 2 13 13 8 3 6 9 8 10 9 10 10 12 6 9 9 11 13 7 7 6 6 4 3 2 0 3 7 12 12 14 12 13 5 11 11 18 6 6 16 10 4 14 13 9 10 11 12 14 14 13 13 12 11 10 9 9 8
29 32 31 31 29 30 31 26 25 24 22 20 18 16 14 13 12 11 8 6 3 1 6 5 6 7 7 1 3 5 7 10 9 9 9 7 8 7 11 12 8 12 13 9 9 14 9 9 3 5 2 4 6 5 6 7 8 9 11 14 13 15 12 13 6 8 5 8 11 12 14 17 13 6 2 2 7 10 12 14 15 14 12 12 9 9 8 9
29 27 31 30 30 32 29 28 25 24 23 20 19 16 12 12 13 17 10 8 6 2 4 3 6 6 11 13 9 14 10 7 11 12 12 11 6 12 13 6 9 14 12 9 2 7 3 4 5 5 7 8 8 7 11 14 17 16 13 12 13 6 14 15 9 9 10 8 12 13 16 17 20 17 6 6 5 8 12 13 14 14 14 13 8 8 10 10
26 28 29 27 26 27 31 27 26 25 24 21 19 20 19 15 7 4 7 7 8 6 7 8 11 13 10 17 20 3 3 7 8 15 13 14 9 10 5 3 14 16 10 7 3 13 2 6 4 6 11 11 13 15 16 17 9 14 17 17 12 12 12 14 11 8 17 12 14 17 16 15 22 20 15 7 7 9 11 12 11 12 11 11 10 10 10 11
28 27 29 31 31 33 28 29 27 25 25 18 15 11 8 9 6 6 5 9 12 12 3 15 17 6 7 7 8 10 1 6 12 13 14 13 12 13 8 11 9 11 11 12 9 9 9 8 8 11 10 16 17 21 22 17 10 15 17 15 16 15 10 2 7 3 5 7 15 16 16 15 18 18 15 13 8 7 9 11 11 12 11 11 11 12 12 13
30 32 32 32 27 36 32 31 27 22 27 14 18 15 12 16 15 12 13 11 13 14 1 11 21 19 7 6 6 14 6 4 5 11 15 12 11 14 9 14 14 11 12 11 12 8 11 11 13 12 14 16 18 18 19 17 20 19 14 19 17 14 16 11 12 4 3 10 10 12 14 17 17 18 15 12 12 14 14 13 13 14 13 11 13 14 14 14
29 30 30 31 37 32 30 27 27 29 27 17 17 14 7 16 3 6 11 8 12 11 10 6 7 16 11 4 4 1 9 5 8 7 8 16 13 14 10 17 16 16 13 12 11 10 13 16 17 16 16 15 15 18 20 21 22 18 12 12 10 14 10 3 8 4 4 5 11 3 11 14 16 19 17 16 14 12 13 14 15 16 16 12 11 13 13 11
31 30 32 32 33 31 30 27 28 31 15 14 15 15 9 9 6 7 8 3 6 9 11 10 11 13 14 5 2 6 10 15 14 14 12 14 14 19 13 16 18 14 15 17 16 13 12 15 19 17 14 16 17 18 21 22 20 18 17 13 14 11 13 13 7 5 5 7 2 2 11 13 14 16 19 15 13 12 14 17 18 16 17 18 17 15 12 14
30 30 30 31 31 30 34 29 32 22 13 17 16 12 8 8 9 8 11 5 4 9 13 14 13 11 10 8 2 6 9 9 10 13 9 15 13 11 14 18 17 16 17 20 20 16 17 10 18 16 16 19 20 19 19 16 18 18 19 18 16 13 15 16 6 5 2 5 2 8 13 15 15 15 15 14 15 15 15 16 17 17 16 17 17 15 14 17
28 32 33 32 33 32 29 30 16 11 13 13 11 8 9 8 8 8 8 4 2 2 5 7 5 7 8 3 1 5 8 6 8 3 12 17 14 13 13 7 11 17 12 17 15 11 11 10 12 14 16 19 21 20 19 15 15 15 21 18 17 10 12 10 8 8 5 11 9 7 11 17 13 19 20 15 12 16 16 18 19 18 17 16 19 19 19 17
27 33 31 33 31 34 36 15 15 16 17 14 10 8 7 6 6 3 5 2 4 4 8 10 10 12 10 8 7 6 3 12 11 7 10 11 13 13 7 11 7 13 17 15 13 6 9 12 10 14 15 15 19 20 19 18 14 14 16 18 19 10 13 11 10 8 12 15 6 12 14 17 3 12 15 14 17 19 14 18 19 18 16 16 16 17 18 16
25 33 34 32 31 34 21 9 15 16 17 10 12 9 8 9 6 8 6 1 7 8 9 6 13 2 9 13 14 9 11 11 9 9 9 6 10 3 15 14 7 5 8 6 5 11 8 14 11 14 13 13 14 17 15 18 15 15 10 18 19 15 16 15 14 14 10 3 4 5 9 16 17 16 11 11 13 15 17 17 17 17 17 19 18 19 18 15
24 31 34 37 36 34 14 10 21 18 12 14 12 10 10 10 8 6 5 5 6 12 7 6 6 3 4 13 18 15 5 7 11 13 15 13 12 13 11 18 16 16 12 10 20 9 21 16 21 22 16 14 17 16 12 18 15 9 11 16 22 21 22 15 14 13 11 3 13 8 4 8 16 8 12 13 16 19 21 19 17 17 18 19 20 19 18 16
24 31 36 39 40 27 12 13 19 16 14 15 11 11 9 13 12 9 5 7 1 3 4 9 4 4 7 16 18 18 15 3 3 5 13 8 15 1 15 18 17 16 16 18 14 10 10 19 22 20 16 18 14 16 15 17 16 15 6 13 15 13 12 15 14 14 4 6 17 15 12 11 21 10 9 14 19 22 20 19 21 20 20 18 16 16 16 14
25 31 39 41 31 15 8 9 12 16 16 14 14 12 14 12 10 8 7 7 5 4 8 6 12 12 14 16 15 19 19 10 5 3 10 10 13 8 5 4 13 15 15 15 15 12 3 9 14 13 16 12 12 11 13 18 20 6 13 10 5 5 1 3 3 9 5 15 18 16 16 14 20 14 14 12 16 16 13 13 13 17 19 20 20 16 13 14
25 29 34 35 17 13 15 12 14 17 17 18 17 18 13 8 9 9 12 4 5 1 3 9 10 15 17 18 13 15 17 13 13 6 6 10 12 13 6 9 6 11 11 12 15 14 8 4 9 4 10 11 9 9 11 15 11 11 8 12 9 4 3 1 0 2 11 12 16 15 16 17 16 17 12 18 12 14 16 16 16 16 19 18 15 12 14 15
26 32 39 27 15 14 19 15 20 18 17 21 21 13 13 13 4 9 7 5 2 8 10 10 13 14 20 20 12 17 16 15 14 14 10 9 11 14 17 10 9 9 15 15 14 11 15 11 6 8 11 17 13 11 10 8 9 14 9 12 16 4 5 11 5 11 10 9 12 15 15 10 23 25 6 3 12 9 11 13 15 17 16 16 15 16 13 11
23 29 37 20 17 12 11 17 17 18 20 22 15 13 11 10 14 10 5 8 2 7 9 12 15 16 20 18 15 16 17 18 15 14 15 13 12 14 16 18 12 13 11 18 14 16 13 11 13 12 9 13 14 16 8 9 13 14 14 14 14 9 13 9 7 2 1 8 12 4 19 15 16 17 20 22 14 7 10 13 13 13 15 15 14 11 10 8
27 31 25 15 13 12 18 21 18 26 24 18 14 11 7 9 9 12 8 6 0 3 9 10 15 15 17 14 15 15 12 13 16 13 16 11 12 12 13 18 20 16 6 8 15 13 14 16 17 18 12 15 16 15 16 11 14 17 12 15 14 10 6 12 11 13 14 10 2 8 11 7 10 7 6 4 13 14 9 10 10 8 7 6 3 4 4 7
27 26 16 12 10 18 20 19 23 28 21 16 14 12 15 11 8 14 12 11 4 2 9 11 17 16 15 15 13 17 13 11 15 14 16 13 13 12 12 13 17 18 8 7 8 8 22 10 8 24 12 24 23 19 17 14 12 14 14 9 13 17 5 10 4 7 9 9 3 8 7 5 12 6 4 4 3 4 4 7 5 10 10 10 9 9 10 10
29 14 14 8 13 17 20 17 21 21 20 15 14 13 13 12 10 11 10 10 5 5 8 13 14 15 13 14 12 16 16 7 15 13 12 16 14 15 11 8 11 15 13 12 5 8 5 15 9 15 5 21 24 20 16 17 14 10 10 17 11 2 12 3 2 3 4 2 10 6 5 15 9 16 16 12 4 7 7 8 7 11 12 8 10 11 11 9
13 16 9 13 13 19 20 18 19 18 13 13 13 15 11 6 1 9 4 15 6 11 11 10 10 11 12 12 12 16 15 10 11 13 11 11 14 18 15 10 10 15 16 10 7 4 10 9 14 20 19 17 21 18 16 21 8 10 15 11 2 4 1 5 7 5 7 11 7 9 13 13 6 12 6 20 15 12 12 11 11 13 8 8 11 10 9 9
13 14 12 14 17 19 19 18 19 14 11 12 10 10 4 4 6 8 4 12 7 9 8 9 3 7 9 11 14 17 16 16 12 13 10 16 7 13 20 9 11 15 21 16 5 4 3 7 7 18 18 17 17 17 14 15 1 11 15 14 14 9 12 6 4 10 9 10 5 6 13 16 13 15 4 9 17 19 21 17 14 13 9 11 11 9 8 9
13 13 8 12 17 18 19 16 15 14 12 9 9 12 3 6 7 7 4 9 9 10 9 10 5 8 6 12 11 16 18 17 15 14 12 10 11 15 17 13 10 17 19 22 12 3 4 7 3 12 16 11 9 11 16 14 6 2 2 10 2 2 10 13 10 2 6 9 6 17 11 13 12 15 11 9 15 15 13 11 13 16 15 12 11 8 7 8
14 8 0 13 18 17 14 14 11 10 10 14 12 6 6 8 2 2 1 10 8 12 12 11 6 5 7 7 12 12 16 20 15 13 14 10 12 10 16 18 12 14 16 21 17 6 5 3 7 5 8 15 13 12 14 15 14 8 7 8 3 3 3 2 3 11 5 7 12 8 14 13 14 10 13 16 13 13 13 10 9 10 12 12 13 13 7 4
4 5 2 13 19 17 15 11 10 10 8 2 4 4 3 6 5 2 2 3 2 5 2 10 7 7 5 7 6 12 10 15 13 13 13 10 15 10 9 13 13 14 13 15 18 11 7 6 12 2 10 16 11 12 22 22 20 17 17 16 17 16 10 15 11 4 8 9 8 10 16 11 3 6 12 16 15 16 14 10 9 10 12 10 6 4 3 6
11 8 4 16 20 20 18 11 4 5 3 10 11 8 4 6 5 5 3 2 1 3 5 4 3 9 5 5 4 8 6 14 16 15 12 14 12 13 8 14 15 15 13 10 12 12 7 1 8 8 8 14 17 14 15 19 20 17 16 15 16 14 8 8 14 13 6 9 3 5 7 7 5 5 8 11 13 14 15 13 14 10 9 7 5 4 5 6
3 6 8 21 19 21 15 9 10 8 7 5 8 4 4 2 6 2 7 2 6 2 3 4 7 4 8 8 6 3 9 8 16 15 13 17 14 17 6 17 14 14 13 9 13 10 4 5 8 3 3 5 4 3 6 12 16 13 9 1 10 14 15 13 9 7 12 6 10 8 12 5 3 5 3 1 1 5 3 4 11 10 7 5 5 6 7 7
5 13 10 13 20 17 13 13 15 14 7 5 8 6 2 3 8 2 6 9 6 3 7 6 1 4 1 2 1 10 9 7 12 17 14 13 13 15 14 13 18 11 15 8 9 13 6 2 8 7 5 2 2 1 2 1 7 8 10 10 13 14 16 4 4 2 8 13 12 7 18 13 6 4 3 1 4 4 8 5 5 7 6 7 7 7 6 6
6 5 5 1 10 10 11 5 14 14 15 10 10 9 6 1 2 3 8 5 3 3 3 6 8 5 3 2 1 2 11 14 4 17 14 12 12 9 18 17 17 13 13 12 16 12 13 6 10 11 13 12 10 12 14 10 12 7 11 15 13 17 18 5 13 4 10 8 14 11 11 17 1 2 6 5 3 5 5 3 0 4 6 5 6 4 2 4
5 7 1 3 3 6 2 4 3 6 10 9 8 9 8 6 2 2 5 3 6 2 3 2 4 9 9 6 5 2 5 10 9 5 13 10 7 1 8 12 17 13 17 11 9 11 6 7 9 11 11 12 9 3 2 7 11 15 18 20 20 19 22 19 11 12 12 13 14 15 17 16 6 6 7 6 5 7 8 6 6 8 10 8 5 5 3 4
2 5 7 5 5 2 3 2 6 8 11 14 9 7 15 15 5 2 6 4 5 5 0 3 4 7 3 10 13 11 8 7 9 4 13 16 11 4 10 15 12 16 17 11 10 5 1 11 16 17 19 13 3 1 4 12 16 20 22 24 23 21 20 21 16 18 13 13 17 12 17 20 19 17 8 7 6 6 5 5 6 5 7 7 3 3 5 6
3 2 3 5 5 11 7 5 6 9 6 13 4 6 12 14 12 10 2 4 5 7 6 0 4 13 13 14 11 10 12 11 7 9 4 13 6 0 2 9 13 14 17 10 12 9 5 5 14 18 19 20 2 2 3 7 13 16 18 19 24 23 22 20 20 17 17 14 15 19 21 22 24 21 10 11 10 9 9 10 7 3 0 2 4 7 7 8
1 3 2 3 2 10 16 13 16 11 12 14 4 10 10 15 17 14 6 5 3 3 12 10 14 16 15 14 11 11 11 9 13 10 5 4 9 6 7 3 9 7 14 9 10 5 6 7 2 5 16 14 6 1 4 7 6 10 14 16 18 22 22 24 22 19 19 16 18 18 16 22 25 20 14 10 7 7 7 2 3 3 4 5 6 7 9 8
2 4 4 0 4 8 8 10 10 12 12 14 9 11 12 16 17 9 6 9 9 10 7 13 12 12 15 14 14 14 14 19 18 15 11 8 6 7 10 12 6 5 9 11 5 6 9 6 13 4 3 6 1 5 3 2 3 12 15 16 17 18 20 21 21 19 18 16 17 21 20 21 23 20 11 5 6 6 4 6 6 5 6 7 9 10 10 11
3 2 4 6 6 5 8 10 12 14 12 10 11 10 10 15 17 16 13 12 12 8 13 21 15 9 11 14 18 21 20 18 19 20 15 15 11 12 10 6 11 11 14 9 8 5 11 7 7 5 6 10 9 10 10 10 11 9 9 14 18 18 18 19 19 21 17 18 23 24 21 18 23 10 5 7 7 9 10 8 6 7 9 10 11 11 10 8
3 2 3 6 2 5 10 9 10 10 13 13 14 13 11 16 10 12 10 9 12 13 12 14 13 13 9 16 20 22 20 16 17 14 11 13 10 2 4 3 14 13 11 12 9 8 9 8 5 5 9 13 18 9 11 10 8 13 14 13 16 19 19 21 22 21 19 20 18 17 20 25 11 9 8 8 9 9 9 9 9 10 12 15 13 8 7 8
Wind_Direction
224 221 220 218 219 220 222 223 225 227 227 225 222 220 219 223 224 224 224 222 221 220 220 218 213 211 219 226 230 234 247 245 244 221 216 219 190 181 167 134 177 175 154 233 266 315 6 235 201 129 222 262 148 244 103 208 170 188 218 229 235 236 212 187 205 192 8 241 160 176 190 192 184 160 177 166 186 235 110 215 182 235 235 281 55 3 129 144
223 221 220 218 217 219 219 222 222 224 226 224 222 220 218 218 220 223 223 222 219 219 218 217 217 212 214 222 221 218 233 247 256 245 227 124 186 175 169 171 171 173 153 253 263 249 265 256 208 155 189 231 90 267 134 192 226 211 217 233 243 214 221 180 218 196 205 234 163 181 189 203 187 165 164 205 189 195 216 221 213 225 225 189 178 119 153 160
230 223 218 219 216 215 217 219 220 220 222 224 223 221 219 216 216 220 222 222 219 218 216 216 212 212 215 219 226 198 221 264 275 255 239 193 195 182 168 167 163 160 187 205 223 237 227 279 107 196 186 242 185 230 192 190 202 224 233 230 241 209 207 219 211 205 218 52 141 165 187 215 142 177 130 218 196 187 222 216 201 225 225 208 168 167 167 174
226 227 220 218 217 215 214 216 216 216 218 221 222 220 219 214 214 215 219 220 219 215 215 213 213 207 205 214 190 217 182 301 260 236 234 184 189 183 170 162 159 165 154 141 124 203 157 193 232 225 177 226 179 228 218 183 223 143 227 235 251 152 218 219 214 225 186 29 152 166 124 202 193 172 172 187 211 221 234 231 217 213 221 205 161 173 175 181
219 223 220 219 217 215 213 213 214 214 214 217 220 220 217 215 212 213 215 220 219 218 213 207 210 207 192 194 195 148 121 263 246 223 184 179 184 181 174 160 157 152 156 119 132 113 168 191 184 216 183 222 227 209 234 194 252 157 227 239 318 131 231 231 199 181 168 59 149 137 169 207 123 155 204 187 214 231 224 228 223 234 226 176 163 179 180 186
218 218 217 217 215 213 212 213 212 212 212 213 216 217 217 215 211 209 212 215 218 213 212 206 201 207 185 176 190 197 156 213 61 333 168 171 180 177 173 163 151 135 137 149 174 142 181 177 194 180 186 207 224 220 202 224 165 233 229 246 249 236 252 45 216 159 163 180 186 185 198 93 177 203 207 206 219 214 76 63 248 239 252 154 154 159 182 188
220 216 215 216 218 214 211 210 211 211 210 210 212 213 214 214 213 208 208 210 213 212 208 203 200 190 177 159 197 212 214 274 134 15 211 169 180 175 165 160 151 141 143 129 139 179 210 193 200 197 171 215 235 222 212 189 194 244 249 194 222 185 235 53 323 133 195 193 207 152 106 204 186 232 177 214 230 211 102 73 80 344 122 134 153 177 186 192
217 220 211 211 215 218 209 209 208 210 209 208 208 210 210 212 213 210 204 204 207 210 204 198 195 181 152 180 187 219 230 238 255 49 37 184 181 169 161 164 160 151 159 171 150 148 126 209 199 183 208 201 190 214 199 206 194 224 242 241 192 200 233 46 305 203 196 213 43 175 199 224 205 251 113 224 234 218 144 114 102 128 152 163 173 184 194 198
216 209 205 214 212 209 210 208 205 205 208 206 204 206 207 208 212 211 203 200 202 207 204 192 192 184 165 175 212 239 233 249 100 303 62 205 191 173 158 168 169 164 171 172 168 163 154 229 288 212 209 211 197 215 192 206 226 220 238 239 149 215 214 187 160 196 205 188 194 192 231 205 216 18 256 241 233 226 154 154 126 145 164 181 192 187 195 201
217 208 197 205 212 205 205 202 203 203 204 204 202 201 203 205 208 210 208 199 199 206 201 192 187 184 185 196 212 238 270 15 152 238 242 29 237 192 180 161 171 164 165 167 156 151 188 164 175 106 18 280 319 247 200 208 253 186 226 236 232 224 212 185 228 194 191 224 191 224 233 213 100 186 254 212 234 152 185 210 173 186 196 193 194 194 201 206
218 214 204 200 204 207 202 201 198 201 203 203 201 198 197 200 204 204 204 204 198 202 203 193 185 178 198 196 208 232 67 312 161 184 93 60 225 199 192 168 165 170 165 161 162 171 179 171 121 113 356 239 356 248 230 233 323 206 236 239 234 218 223 170 232 191 160 227 199 228 247 69 163 203 237 159 86 171 201 212 200 217 222 206 203 199 201 210
219 213 212 203 202 202 196 205 198 197 200 200 200 197 193 193 198 199 199 202 202 201 204 200 185 194 199 203 220 217 68 56 300 135 155 88 227 205 188 173 167 161 161 162 160 159 160 134 129 145 195 133 247 326 282 291 255 231 182 244 236 226 239 202 215 195 192 224 167 192 266 242 187 230 206 239 99 176 212 216 206 216 226 222 210 207 202 207
222 215 211 196 199 205 199 197 203 198 197 197 196 194 188 186 189 192 196 198 202 202 203 200 184 202 184 227 235 242 300 324 16 5 123 126 2 288 259 174 166 155 156 151 143 120 99 125 156 186 66 38 221 177 319 304 260 182 228 247 248 232 239 217 170 140 187 213 158 157 249 235 229 217 162 214 206 161 205 225 216 222 225 224 218 215 219 205
215 212 208 202 203 199 197 200 199 200 198 194 192 190 183 180 181 188 192 196 191 201 198 199 187 177 210 243 222 58 226 256 8 296 180 149 189 340 346 319 142 144 125 105 113 126 109 106 111 90 59 132 156 323 331 335 299 221 211 235 240 242 241 188 188 158 207 145 176 191 248 253 249 224 184 197 200 206 227 226 221 219 224 225 221 224 224 216
214 207 207 201 193 196 202 198 197 198 194 192 187 186 178 175 178 184 183 196 192 191 195 160 170 144 224 255 283 275 241 52 222 233 178 189 180 128 193 156 89 57 99 121 122 125 121 118 116 138 160 162 330 355 297 336 311 238 192 227 225 232 217 154 170 176 210 147 199 185 249 249 254 241 170 194 202 211 235 235 230 218 220 224 223 226 229 228
207 210 207 196 190 191 199 195 193 193 194 189 181 177 172 165 172 175 182 186 198 183 140 160 176 192 231 243 213 15 213 208 220 194 136 208 180 192 158 142 102 97 88 65 113 120 128 136 134 163 136 86 208 212 278 58 233 259 232 229 222 216 229 237 194 199 212 159 195 201 241 234 252 250 188 180 191 210 230 237 235 232 223 222 225 224 231 233
207 204 201 199 190 191 193 189 190 186 186 184 170 167 162 157 155 167 108 92 111 180 154 173 160 180 224 320 9 251 197 208 143 170 155 188 169 170 151 135 140 100 92 95 103 99 120 108 133 120 91 168 169 184 222 222 222 242 232 241 228 219 208 230 103 209 198 192 202 214 236 245 259 100 152 177 201 205 225 233 235 237 236 228 220 223 229 234
210 209 204 196 193 193 190 183 185 182 179 173 164 160 153 140 150 103 97 81 84 44 116 25 147 141 267 267 230 217 191 178 168 162 164 170 129 168 172 163 126 120 108 100 328 99 138 95 166 196 163 187 169 185 207 209 201 206 216 230 234 241 217 222 204 172 178 209 233 207 227 241 251 248 169 159 190 217 230 235 237 239 240 240 228 231 236 241
207 200 200 199 196 193 188 180 180 178 175 165 147 116 98 83 80 87 127 138 145 140 184 187 171 190 209 227 219 284 107 150 154 164 171 152 167 199 219 110 145 136 158 148 211 113 155 99 149 170 209 183 191 192 204 221 205 213 213 225 235 227 215 222 216 146 180 198 217 219 223 224 244 246 240 184 168 211 231 242 247 246 247 249 246 238 238 238
205 202 197 195 196 193 183 178 175 175 155 161 139 128 136 153 151 186 186 177 203 194 18 178 189 209 345 42 176 166 45 189 172 189 162 161 146 189 202 158 173 161 144 193 142 176 131 155 182 195 204 203 198 203 214 221 236 232 229 235 230 232 231 180 234 99 231 234 225 223 232 236 244 249 242 242 208 208 231 238 243 245 243 242 242 240 237 237
207 202 197 194 190 193 181 178 173 158 155 147 151 149 176 169 164 193 181 200 199 213 142 163 196 211 204 46 23 152 172 187 215 184 177 153 159 160 194 171 173 185 191 164 151 149 153 201 214 210 210 205 208 211 219 230 234 239 242 235 234 231 241 214 216 149 231 221 243 223 237 239 244 254 248 244 233 230 233 233 237 246 242 239 240 244 240 241
210 198 195 190 193 191 182 170 160 152 158 159 162 178 179 176 70 81 139 182 213 220 241 223 214 228 263 304 37 305 171 207 204 195 162 164 153 189 177 190 180 201 180 177 124 155 184 207 215 215 219 224 219 216 218 222 232 235 248 247 241 233 228 153 205 106 164 207 249 197 244 246 244 251 250 242 237 236 239 239 238 239 243 237 235 240 243 239
212 199 188 185 186 184 180 170 163 156 158 165 181 182 168 141 88 102 119 100 198 200 229 231 229 233 238 314 298 41 225 203 198 187 185 172 165 200 178 196 187 190 185 182 184 175 196 211 211 208 218 219 225 218 220 230 234 234 231 229 226 211 204 230 197 157 170 219 293 265 263 260 253 250 253 247 240 240 239 242 243 239 243 245 243 239 239 244
205 199 187 184 184 182 179 170 155 154 174 180 177 166 111 128 131 142 151 177 184 178 205 213 223 237 231 220 222 213 224 213 206 197 177 182 186 173 201 197 198 198 198 185 197 195 203 185 202 198 211 213 219 213 215 224 234 229 233 236 232 219 206 223 206 154 160 248 308 293 277 266 242 242 248 238 229 237 238 243 243 243 240 244 251 253 246 250
203 201 190 181 184 176 169 146 155 173 160 168 167 130 156 143 129 156 126 143 344 270 171 223 170 238 217 91 112 202 218 258 241 193 169 193 173 169 211 195 201 205 189 189 195 208 209 178 114 181 202 208 216 222 214 208 230 231 230 232 236 214 219 199 127 162 213 244 193 206 280 262 243 236 239 242 229 221 221 232 237 236 232 232 241 246 245 241
203 201 189 181 176 175 158 153 172 167 159 176 156 145 158 136 110 120 96 65 246 174 138 208 134 230 129 209 147 196 19 242 188 215 176 199 185 187 146 210 190 199 188 178 195 219 212 183 183 186 195 206 218 227 219 203 223 228 225 212 229 211 217 191 172 174 236 243 199 181 234 267 197 235 225 227 234 237 221 222 235 236 235 232 233 236 238 232
202 199 186 181 176 165 157 179 150 147 165 170 146 144 146 133 124 118 154 290 274 156 177 148 165 244 176 171 162 143 209 225 146 156 185 241 207 212 198 191 179 264 188 150 163 213 170 199 202 222 206 208 219 223 210 204 216 233 226 211 211 217 213 196 188 205 238 60 91 224 221 266 274 248 237 220 230 234 237 232 230 235 237 239 239 235 234 230
196 196 186 180 173 165 178 143 151 167 160 124 135 124 126 125 113 111 180 172 253 132 185 159 222 42 210 155 154 193 226 80 159 193 186 170 210 199 215 205 192 185 178 164 210 126 185 182 195 209 202 213 224 218 191 202 218 229 222 205 204 210 218 197 200 214 231 212 248 194 188 268 256 260 208 221 247 243 240 234 228 227 232 236 237 238 236 230
194 193 186 182 170 161 137 152 158 154 126 131 128 127 123 141 155 152 175 195 66 90 106 155 111 136 147 162 177 196 219 176 236 134 176 143 202 347 200 221 217 195 176 185 206 192 190 192 194 196 189 215 211 213 206 191 221 226 191 199 209 200 212 202 209 218 184 209 241 225 174 240 267 240 220 201 228 246 242 232 233 230 231 233 238 236 233 233
190 189 186 176 157 139 141 134 140 134 128 124 125 124 124 130 134 171 138 243 124 181 156 155 184 181 167 167 188 197 204 197 199 119 169 173 185 206 288 348 233 212 201 204 222 215 143 210 195 189 202 207 204 206 196 210 219 148 180 184 101 67 44 1 285 207 195 227 234 217 179 206 268 247 218 199 221 224 237 238 238 233 235 238 238 229 221 223
189 185 184 164 158 155 137 148 138 147 132 137 129 128 139 149 173 166 189 190 57 94 88 166 176 152 169 167 195 198 207 194 200 164 186 179 190 195 212 250 226 225 202 196 218 212 199 110 172 198 184 206 187 198 209 212 198 161 183 181 154 185 87 139 92 233 211 235 238 209 199 186 239 267 207 220 226 189 217 235 233 230 233 233 236 235 235 231
190 184 177 165 156 149 155 153 150 143 138 139 135 143 152 155 197 195 187 90 168 172 173 173 186 172 172 181 186 182 192 198 204 197 201 194 196 192 197 209 168 185 198 189 211 195 222 204 166 169 189 174 176 182 211 188 166 189 178 175 179 177 143 214 151 208 212 222 233 209 176 200 228 241 65 207 228 207 206 225 231 237 241 235 231 232 227 223
181 182 171 164 149 148 133 130 135 135 137 143 135 153 160 162 184 195 181 152 247 135 188 156 179 178 183 178 200 174 185 204 190 201 197 206 214 214 206 198 199 205 183 184 199 192 218 204 191 184 170 190 166 189 166 182 183 196 187 178 186 182 183 210 180 64 269 268 254 164 168 224 247 268 240 245 250 214 216 222 233 234 239 238 233 229 226 225
179 177 169 160 156 134 137 141 144 141 144 142 143 149 170 177 203 190 188 190 153 317 143 169 160 179 181 192 201 167 186 210 187 192 195 212 210 227 214 207 193 222 255 179 198 180 198 204 208 169 204 162 193 198 178 170 173 198 191 191 200 188 188 199 188 189 196 211 208 172 154 229 223 223 27 277 249 242 213 217 225 241 259 281 337 345 291 258
170 167 153 149 125 134 140 147 150 144 143 145 148 166 165 193 186 172 198 195 209 191 166 153 164 170 192 201 191 183 182 198 201 184 198 204 215 224 215 202 202 200 185 188 201 183 215 239 161 187 170 167 191 195 181 172 192 197 198 216 212 207 171 224 201 203 202 208 153 198 209 263 236 7 273 222 233 259 228 248 258 261 255 250 255 248 242 238
163 157 146 143 140 147 144 151 149 143 147 145 153 172 190 181 185 170 204 179 79 151 154 161 168 181 188 201 196 196 193 201 176 199 209 209 215 220 211 206 199 206 195 200 127 202 170 225 151 179 202 184 188 183 189 163 203 169 194 211 212 326 213 119 52 13 50 266 250 137 274 259 299 273 246 251 202 243 217 221 217 239 237 227 238 239 236 233
154 140 160 147 141 151 145 155 148 152 148 146 156 182 195 185 62 157 154 177 166 149 148 158 186 175 188 192 193 192 198 211 185 185 207 193 235 226 219 216 178 195 229 202 199 255 198 195 178 168 191 198 191 186 177 190 176 140 211 197 66 285 357 166 206 140 205 218 224 163 217 249 216 276 210 202 215 235 225 214 221 234 233 231 240 235 237 238
147 151 139 146 153 150 148 156 150 154 145 155 175 186 171 188 170 185 112 159 126 179 169 185 186 193 189 183 196 193 187 193 183 189 215 177 258 175 215 220 184 199 203 231 251 188 183 216 196 188 185 187 184 174 196 203 93 198 202 163 186 179 199 191 235 206 182 212 232 214 219 242 214 232 102 182 201 215 231 226 221 228 220 234 252 246 229 240
146 147 156 147 150 149 148 155 154 144 152 162 181 189 148 215 169 185 178 157 175 180 194 206 183 199 180 191 195 194 183 198 178 196 194 184 214 177 200 180 205 190 202 206 230 229 225 232 136 205 189 150 169 179 203 189 199 301 334 212 314 28 211 192 201 51 173 223 200 244 212 247 206 235 211 192 185 209 230 226 227 235 241 234 238 246 213 214
148 134 217 147 148 143 146 140 132 141 157 177 174 204 151 191 159 167 242 171 174 187 208 196 196 172 195 208 197 193 189 195 186 197 207 160 218 142 197 174 192 178 200 194 210 217 249 203 240 172 169 154 201 182 199 179 180 188 200 196 210 221 308 64 184 213 176 204 226 254 248 239 247 181 187 218 198 184 215 211 217 223 232 233 235 234 222 209
112 106 101 146 145 140 137 134 142 155 160 163 184 170 113 181 162 208 157 339 132 23 211 204 181 198 176 191 210 199 189 203 195 197 200 208 193 212 196 182 170 182 164 198 201 199 229 193 219 169 202 195 191 192 194 188 182 186 185 195 189 187 186 191 209 182 221 205 210 215 244 245 256 158 184 208 205 200 206 203 216 218 222 218 230 260 201 226
141 132 172 145 141 142 138 137 132 152 154 175 185 175 183 138 141 178 132 46 351 161 6 71 164 200 184 223 216 189 197 201 201 202 207 215 198 230 161 177 183 153 162 186 207 194 185 175 215 206 219 194 196 204 202 193 187 195 190 200 192 203 197 205 201 193 202 219 238 248 308 266 131 155 180 193 201 207 215 206 224 230 236 240 214 216 228 235
40 96 134 143 151 144 140 135 145 156 183 179 86 124 95 133 153 188 160 191 194 140 119 187 190 177 215 197 192 215 197 200 197 209 203 211 221 204 195 185 169 172 155 180 181 204 68 210 190 247 246 299 339 348 162 197 191 204 223 350 193 205 202 209 215 183 201 177 212 222 244 256 121 189 194 274 315 241 225 176 220 222 225 233 223 212 224 224
118 117 143 159 158 152 152 154 156 178 178 109 175 158 92 156 166 139 199 180 185 156 194 181 73 220 211 151 152 183 214 219 205 207 216 212 230 195 204 192 176 182 169 181 189 160 214 178 202 168 193 201 295 10 251 108 186 205 197 202 199 199 205 209 73 20 205 206 213 202 237 251 198 145 137 181 235 217 236 203 220 240 226 241 232 218 216 233
95 41 52 193 162 166 157 166 165 172 175 161 165 174 155 100 238 195 174 185 149 153 174 222 205 132 188 100 249 252 189 212 201 218 224 201 227 183 209 206 185 189 188 167 185 153 201 175 191 208 195 191 194 200 194 184 198 183 206 198 201 194 195 144 207 170 224 187 204 221 243 249 104 142 169 200 197 240 234 243 188 255 267 255 251 257 288 277
171 130 149 51 124 170 37 24 134 138 150 148 165 194 161 180 146 145 161 195 165 167 234 92 70 160 198 186 249 309 260 235 219 210 210 225 225 224 189 196 199 197 190 135 135 155 217 198 212 228 224 217 213 193 357 181 166 193 194 196 196 200 197 198 194 197 202 200 218 220 227 242 147 189 198 198 201 210 209 209 213 224 238 244 265 279 263 264
37 132 151 113 70 177 149 46 145 149 177 168 185 159 193 199 154 97 178 206 178 169 116 215 172 161 196 187 215 230 238 282 294 309 204 207 208 202 188 182 197 206 178 160 145 108 196 221 207 210 233 256 343 118 145 157 189 198 193 198 198 199 198 199 200 209 194 206 229 228 237 249 246 235 167 187 194 232 239 205 217 230 244 243 251 285 276 261
111 350 24 151 144 162 164 232 188 179 162 163 197 142 197 189 187 193 147 230 95 177 192 197 212 222 210 196 197 215 221 224 248 251 243 213 160 311 159 201 195 192 171 183 163 169 148 252 225 209 226 228 184 124 107 187 203 209 207 195 198 199 199 204 212 214 200 209 220 221 222 235 248 242 198 182 191 200 211 223 220 214 292 261 240 250 257 248
22 76 83 298 72 168 182 173 170 169 163 179 177 176 183 186 201 198 153 139 135 213 203 219 209 213 219 211 197 227 204 207 232 242 237 200 192 149 183 145 241 191 186 176 175 173 138 222 307 283 232 233 230 63 125 210 212 226 224 218 212 208 204 205 212 214 211 214 227 245 237 239 246 246 230 191 168 199 226 275 360 288 220 216 235 249 250 259
174 149 144 54 21 152 153 96 151 167 188 182 194 201 192 190 202 177 160 159 187 203 176 228 221 202 217 223 216 222 212 207 210 216 220 201 208 189 185 182 144 197 192 212 182 221 189 204 166 176 270 227 211 284 305 324 271 224 215 214 211 206 208 211 217 223 219 230 242 249 250 251 249 246 230 166 166 185 242 230 233 255 256 230 229 232 241 246
125 77 114 137 135 133 143 153 162 181 193 186 212 199 198 204 205 184 199 183 196 181 185 213 208 216 218 224 227 231 224 218 217 216 200 191 207 199 185 204 174 165 187 191 197 169 177 226 142 166 252 261 235 243 265 291 287 280 259 219 208 205 209 207 216 218 203 210 224 237 244 245 255 235 152 149 160 187 210 221 221 234 232 232 230 229 235 254
81 345 130 132 114 147 156 161 164 168 206 204 205 195 196 208 209 169 215 206 216 215 203 208 201 205 220 222 230 232 229 227 229 232 216 206 219 196 259 191 187 167 176 196 171 187 179 209 178 161 229 249 251 225 239 255 290 275 247 224 204 206 206 210 220 220 212 210 220 226 237 237 256 104 206 186 178 193 196 199 219 230 230 227 228 213 221 233